Portada
METAR-TAF:

METAR-TAF

Aeropuertos :

Fort Madison Municipal Airport

Fort Madison, Iowa, Estados Unidos

latitud: 40-40N, longitud: 091-20W, altitud: 221 m

Observación

El informe se hizo hace 30 minutos, a las 08:35 UTC
Viento calma
Temperatura 22°C
Humedad 83%
Presión 1016 hPa
Visibilidad: 16.1 km

METAR: KFSW 060835Z AUTO 00000KT 10SM 22/19 A3000 RMK AO2

Hora: 04:05 (09:05 UTC)


TAF: falta

Observaciones y pronósticos meteorológicos de más de 4000 aeropuertos (mensajes METAR y TAF).

Los puntos amarillos y rojos representan las estaciones disponibles.

Ponga el ratón en el punto deseado para ver el nombre de la estación.

Haga clic para ver las observaciones y los pronósticos meteorológicos.

Para cambiar el mapa : haga clic en los botones verdes con una cruz de color negro para hacer un zoom, en el botón verde con un guión para alejar o en las flechas verdes para mapas adyacentes.


METAR-TAF: